Pagrindinis puslapis
METAR-TAF:

METAR-TAF

Oro uostai :

Gatesville Municipal Airport

Gatesville, Teksasas, Jungtinės Amerikos Valstijos

platuma: 31-25-16N, ilguma: 097-47-49W, Aukštis: 276 m

Dabartinis oras

Ataskaita buvo paskelbta 22 minutes, ne 03:15 UTC
Ramus vėjas
Temperatūra 21°C
Drėgmė 88%
Slėgis 1014 hPa
Matomumas: 16.1 km
Giedras dangus

METAR: KGOP 170315Z AUTO 00000KT 10SM CLR 21/19 A2993 RMK AO2

Laikas: 22:37 (03:37 UTC)


TAF: trūkstamas

Orai ataskaitas ir orų prognozės (METAR, TAF).

turimą stotys yra geltonos ir raudonos taškus žemėlapyje.

Perkelti pele per norėdami pamatyti stoties vardą.

Tada spustelėkite, norėdami matyti oro stebėjimo ir prognozės.

Norėdami pakeisti žemėlapį: spustelėkite ant žalios mygtukų su juodo kryžiaus žemyn,; žalią mygtuką su brūkšneliu, jei norite nutolinti; arba žalių rodyklių gretimoms žemėlapius.


METAR-TAF: